Location: Alsip
(41.6689°N, 87.7387°W)
Time: 15:18:41
(UTC+00:00)

USA 186 - Pass Details

Date: 14 July 2020
Orbit: 262 x 435 km, 96.9° (Epoch: 12 August)

Event Time Altitude Azimuth Distance (km) Brightness Sun altitude
Rises 01:49:20 0° 184° (S) 2,379 5.3 -4.7°
Reaches altitude 10° 01:51:28 10° 193° (SSW) 1,498 4.3 -5.0°
Maximum altitude 01:54:27 35° 262° (W) 676 3.3 -5.5°
Drops below altitude 10° 01:57:22 10° 331° (NNW) 1,455 5.7 -5.9°
Sets 01:59:20 0° 340° (NNW) 2,263 6.5 -6.2°
